MB7UKB-10 Weather Reports


Display with metric or nautical units.
time (UTC)temp
F
wind
direction
speed
MPH
gust
MPH
rain 1hr
in
rain 24hr
in
rain mn
in
humidity
%
barometer
mb
20260507225009 48 329 0.0 0.0 0.00 0.00 0.00 77 1016.9
20260507222009 50 99 0.0 0.0 0.00 0.00 0.00 73 1016.7
20260507215008 51 62 0.0 1.0 0.00 0.00 0.00 71 1016.7
20260507212008 52 206 0.0 1.0 0.00 0.00 0.00 68 1016.8
20260507205009 53 189 0.0 2.0 0.00 0.00 0.00 66 1016.5
20260507202009 54 231 1.0 1.0 0.00 0.00 0.00 63 1016.2
20260507195009 55 25 0.0 0.0 0.00 0.00 0.00 58 1015.8
20260507192009 56 69 0.0 3.0 0.00 0.00 0.00 59 1015.6
20260507185009 57 34 3.0 3.0 0.00 0.00 0.00 59 1015.4
20260507182009 58 9 1.0 4.0 0.00 0.00 0.00 57 1015.1
20260507175009 59 44 2.0 6.0 0.00 0.00 0.00 49 1015.0
20260507172009 59 92 2.0 5.0 0.00 0.00 0.00 49 1014.8
20260507165009 59 110 2.0 4.0 0.00 0.00 0.00 49 1014.9
20260507162009 59 81 2.0 4.0 0.00 0.00 0.00 50 1014.9
20260507155009 62 119 3.0 4.0 0.00 0.00 0.00 39 1014.9
20260507152008 63 59 0.0 3.0 0.00 0.00 0.00 38 1015.0
20260507145009 63 61 2.0 5.0 0.00 0.00 0.00 35 1014.9
20260507142008 64 259 4.0 6.0 0.00 0.00 0.00 34 1014.8
20260507135009 63 197 0.0 2.0 0.00 0.00 0.00 34 1015.5
20260507132008 62 312 2.0 6.0 0.00 0.00 0.00 34 1015.5
20260507125009 62 146 0.0 2.0 0.00 0.00 0.00 36 1015.6
20260507122009 60 329 0.0 2.0 0.00 0.00 0.00 36 1015.5
20260507115009 61 297 1.0 3.0 0.00 0.00 0.00 36 1015.7
20260507112008 61 193 2.0 3.0 0.00 0.00 0.00 38 1015.9
20260507105009 63 225 2.0 2.0 0.00 0.00 0.00 36 1016.0
20260507102008 61 266 2.0 4.0 0.00 0.00 0.00 42 1016.3
20260507095008 61 324 2.0 3.0 0.00 0.00 0.00 43 1016.3
20260507085008 59 328 2.0 2.0 0.00 0.00 0.00 56 1016.2
20260507082009 56 89 0.0 2.0 0.00 0.00 0.00 66 1016.5
20260507075008 55 170 1.0 2.0 0.00 0.00 0.00 69 1016.5
20260507072008 52 79 0.0 3.0 0.00 0.00 0.00 74 1016.4
20260507065008 49 153 0.0 1.0 0.00 0.00 0.00 78 1016.5
20260507062008 45 251 0.0 0.0 0.00 0.00 0.00 84 1016.4
20260507055009 41 58 0.0 2.0 0.00 0.00 0.00 92 1016.3
20260507052008 38 322 0.0 0.0 0.00 0.00 0.00 94 1016.2
20260507045008 38 352 0.0 2.0 0.00 0.00 0.00 94 1016.0
20260507042008 38 217 0.0 0.0 0.00 0.00 0.00 94 1016.0
20260507035008 38 199 0.0 0.0 0.00 0.00 0.00 94 1015.9
20260507032008 39 44 0.0 0.0 0.00 0.00 0.00 93 1016.0
20260507025008 40 311 0.0 0.0 0.00 0.00 0.00 93 1015.8
20260507022008 40 19 0.0 0.0 0.00 0.00 0.00 91 1015.9
20260507015008 41 230 0.0 0.0 0.00 0.00 0.00 90 1015.6
20260507012009 41 142 0.0 0.0 0.00 0.00 0.00 90 1015.6
20260507005008 42 269 0.0 0.0 0.00 0.00 0.00 88 1015.6
20260507002010 43 131 0.0 0.0 0.00 0.00 0.00 88 1015.8
20260506235009 44 339 0.0 0.0 0.00 0.00 0.00 85 1015.7